Probability
0 0 0 0 0 0 0 0 0 0 0 0 0 0 0 0 0 0 0 0 0 0 0 0 0 0 0 0 0 0 0 0 0 0 0 0 0 0
0 0 0 0 0 0 0 0 0 0 0 0 0 0 0 0 0 0 0 0 0 0 0 0 0 0 0 0 0 0 0 0 0 0 0 0 0 0
0 0 0 0 0 0 0 0 0 0 0 0 0 0 0 0 0 0 0 0 0 0 0 0 0 0 0 0 0 0 0 0 0 0 0 0 0 0
0 0 0 0 0 0 0 0 0 0 0 0 0 0 0 0 0 0 0 0 0 0 0 0 0 0 0 0 0 0 0 0 0 0 0 0 0 0
0 0 0 0 0 0 0 0 0 0 0 0 0 0 0 0 0 0 0 0 0 0 0 0 0 0 0 0 0 0 0 0 0 0 0 0 0 0
0 0 0 0 0 0 0 0 0 0 0 0 0 0 0 0 0 0 0 0 0 0 0 0 0 0 0 0 0 0 0 0 0 0 0 0 0 0
0 0 0 0 0 0 0 0 0 0 0 0 0 0 0 0 0 0 0 0 0 0 0 0 0 0 0 0 0 0 0 0 0 0 0 0 0 0
0 0 0 0 0 0 0 0 0 0 0 0 0 0 0 0 0 0 0 0 0 0 0 0 0 0 0 0 0 0 0 0 0 0 0 0 0 0
0 0 0 0 0 0 0 0 0 0 0 0 0 0 0 0 0 0 0 0 0 0 0 0 0 0 0 0 0 0 0 0 0 0 0 0 0 0
0 0 0 0 0 0 0 0 0 0 0 0 0 0 0 0 0 0 0 0 0 0 0 0 0 0 0 0 0 0 0 0 0 0 0 0 0 0
0 0 0 0 0 0 0 0 0 0 0 0 0 0 0 0 0 0 0 0 0 0 0 0 0 0 0 0 0 0 0 0 0 0 0 0 0 0
0 0 0 0 0 0 0 0 0 0 0 0 0 0 0 0 0 0 0 0 0 0 0 0 0 0 0 0 0 0 0 0 0 0 0 0 0 0
0 0 0 0 0 0 0 0 0 0 0 0 0 0 0 0 0 0 0 0 0 0 0 0 0 0 0 0 0 0 0 0 0 0 0 0 0 0
0 0 0 0 0 0 0 0 0 0 0 0 0 0 0 0 0 0 0 0 0 0 0 0 0 0 0 0 0 0 0 0 0 0 0 0 0 0
0 0 0 0 0 0 0 0 0 0 0 0 0 0 0 0 0 0 0 0 0 0 0 0 0 0 0 0 0 0 0 0 0 0 0 0 0 0
0 0 0 0 0 0 0 0 0 0 0 0 0 0 0 0 0 0 0 0 0 0 0 0 0 0 0 0 0 0 0 0 0 0 0 0 0 0
0 0 0 0 0 0 0 0 0 0 0 0 0 0 0 0 0 0 0 0 0 0 0 0 0 0 0 0 0 0 0 0 0 0 0 0 0 0
0 0 0 0 0 0 0 0 0 0 0 0 0 0 0 0 0 0 0 0 0 0 0 0 0 0 0 0 0 0 0 0 0 0 0 0 0 0
0 0 0 0 0 0 0 0 0 0 0 0 0 0 0 0 0 0 0 0 0 0 0 0 0 0 0 0 0 0 0 0 0 0 0 0 0 0
0 0 0 0 0 0 0 0 0 0 0 0 0 0 0 0 0 0 0 0 0 0 0 0 0 0 0 0 0 0 0 0 0 0 0 0 0 0
0 0 0 0 0 0 0 0 0 0 0 0 0 0 0 0 0 0 0 0 0 0 0 0 0 0 0 0 0 0 0 0 0 0 0 0 0 0
0 0 0 0 0 0 0 0 0 0 0 0 0 0 0 0 0 0 0 0 0 0 0 0 0 0 0 0 0 0 0 0 0 0 0 0 0 0
0 0 0 0 0 0 0 0 0 0 0 0 0 0 0 0 0 0 0 0 0 0 0 0 0 0 0 0 0 0 0 0 0 0 0 0 0 0
Height
5721 5720 5720 5719 5718 5717 5716 5714 5713 5712 5710 5706 5703 5699 5695 5691 5687 5683 5678 5674 5669 5663 5658 5652 5647 5641 5635 5628 5622 5616 5609 5602 5596 5590 5584 5579 5574 5569
5712 5711 5711 5710 5709 5708 5707 5705 5704 5702 5700 5697 5694 5690 5686 5682 5677 5673 5668 5663 5658 5653 5647 5642 5636 5630 5623 5617 5611 5604 5598 5591 5585 5580 5574 5569 5564 5558
5702 5702 5702 5701 5701 5699 5697 5696 5694 5692 5690 5688 5684 5680 5676 5672 5668 5663 5658 5653 5648 5642 5637 5631 5625 5619 5612 5606 5600 5593 5587 5581 5575 5570 5564 5559 5554 5549
5693 5693 5693 5692 5691 5690 5688 5687 5685 5683 5680 5678 5675 5671 5667 5663 5658 5653 5648 5643 5637 5632 5626 5620 5614 5608 5601 5595 5589 5583 5577 5571 5566 5560 5555 5549 5544 5539
5684 5684 5684 5683 5683 5681 5680 5678 5676 5673 5671 5668 5665 5661 5657 5653 5649 5644 5639 5633 5627 5621 5615 5610 5603 5597 5591 5585 5579 5573 5568 5562 5557 5551 5545 5540 5535 5530
5675 5675 5675 5675 5674 5672 5671 5669 5666 5664 5661 5658 5655 5652 5648 5643 5639 5635 5631 5624 5618 5611 5605 5599 5593 5587 5581 5575 5570 5564 5558 5553 5547 5542 5536 5531 5526 5521
5666 5667 5667 5666 5665 5664 5662 5660 5658 5655 5652 5649 5646 5643 5639 5635 5631 5626 5621 5615 5609 5602 5596 5590 5583 5578 5572 5566 5560 5554 5549 5544 5538 5533 5527 5522 5518 5513
5657 5658 5658 5658 5656 5655 5653 5651 5649 5646 5643 5640 5637 5633 5630 5625 5621 5616 5611 5606 5600 5594 5587 5581 5574 5569 5563 5557 5551 5546 5541 5535 5530 5525 5520 5515 5510 5506
5648 5649 5649 5649 5648 5646 5645 5642 5640 5637 5634 5631 5628 5624 5621 5617 5612 5607 5601 5595 5589 5583 5577 5572 5566 5560 5555 5549 5543 5538 5533 5528 5523 5517 5513 5508 5504 5500
5639 5639 5640 5640 5639 5638 5636 5634 5631 5628 5625 5623 5619 5616 5611 5606 5602 5597 5591 5586 5581 5574 5568 5563 5558 5552 5547 5541 5536 5531 5526 5521 5516 5511 5506 5502 5498 5495
5630 5631 5631 5631 5630 5629 5628 5626 5623 5620 5617 5614 5610 5606 5602 5597 5592 5587 5582 5577 5572 5567 5560 5555 5550 5545 5540 5535 5530 5525 5520 5515 5510 5505 5501 5496 5493 5489
5622 5622 5622 5622 5621 5619 5618 5617 5615 5612 5609 5606 5602 5598 5593 5588 5582 5577 5573 5568 5563 5558 5552 5547 5542 5537 5534 5530 5524 5519 5515 5510 5505 5501 5496 5492 5488 5484
5613 5613 5613 5613 5612 5611 5609 5607 5605 5603 5601 5597 5593 5589 5584 5579 5574 5569 5564 5559 5555 5550 5545 5540 5535 5531 5527 5524 5519 5514 5510 5505 5501 5497 5492 5488 5484 5480
5604 5604 5604 5603 5603 5602 5600 5598 5597 5595 5592 5588 5585 5580 5575 5570 5566 5561 5556 5552 5547 5543 5538 5533 5530 5526 5522 5518 5514 5510 5505 5501 5497 5493 5488 5484 5480 5476
5594 5595 5595 5595 5594 5593 5591 5590 5588 5586 5584 5580 5576 5572 5568 5563 5559 5555 5550 5546 5541 5537 5533 5529 5525 5521 5517 5514 5510 5506 5502 5498 5493 5489 5485 5481 5477 5474
5585 5586 5586 5586 5585 5584 5583 5582 5580 5578 5575 5572 5568 5565 5561 5557 5552 5548 5544 5540 5537 5533 5529 5525 5521 5517 5514 5510 5506 5502 5498 5494 5490 5486 5482 5478 5474 5471
5577 5577 5578 5577 5577 5576 5575 5574 5572 5570 5567 5564 5561 5558 5554 5551 5547 5543 5539 5535 5532 5528 5525 5521 5517 5513 5510 5506 5503 5499 5495 5491 5487 5483 5479 5475 5472 5470
5568 5569 5569 5569 5569 5568 5567 5566 5564 5562 5560 5557 5555 5552 5548 5545 5541 5538 5534 5531 5528 5524 5521 5517 5514 5511 5507 5504 5500 5496 5493 5489 5485 5481 5477 5474 5472 5469
5560 5561 5561 5561 5561 5560 5559 5558 5556 5554 5552 5551 5548 5546 5543 5539 5536 5533 5529 5526 5523 5520 5517 5514 5511 5508 5504 5501 5498 5494 5490 5487 5484 5480 5477 5474 5471 5469
5552 5553 5553 5553 5553 5552 5551 5550 5549 5547 5546 5544 5542 5540 5537 5534 5531 5528 5525 5522 5519 5517 5514 5511 5508 5505 5502 5499 5495 5492 5488 5485 5482 5479 5476 5474 5471 5469
5544 5545 5545 5545 5545 5545 5544 5543 5542 5541 5539 5538 5536 5534 5532 5529 5526 5524 5521 5518 5516 5513 5511 5508 5505 5502 5499 5496 5494 5490 5487 5484 5481 5478 5476 5474 5472 5469
5536 5537 5537 5537 5537 5537 5536 5536 5535 5534 5533 5532 5531 5529 5527 5524 5522 5520 5517 5515 5513 5510 5508 5505 5503 5500 5498 5495 5492 5489 5486 5483 5480 5478 5476 5474 5472 5470
5529 5529 5529 5530 5530 5530 5530 5529 5529 5528 5528 5527 5525 5524 5522 5520 5518 5516 5514 5512 5510 5508 5505 5503 5501 5498 5496 5494 5491 5489 5486 5483 5481 5478 5476 5474 5471 5469
Wind_Speed
39 39 39 40 38 38 38 38 38 39 39 40 40 41 42 42 43 44 45 45 46 47 47 47 47 47 48 48 49 49 49 48 47 45 43 42 42 41
40 39 39 39 38 38 39 39 40 40 40 41 41 42 42 43 44 45 45 45 45 46 46 47 47 47 47 47 47 47 46 45 44 42 41 40 40 39
39 39 39 38 38 39 39 39 40 41 41 41 41 42 43 44 44 45 45 45 45 45 46 46 46 46 47 46 45 45 44 43 42 41 40 39 38 39
38 38 38 38 38 39 39 39 40 40 40 40 41 42 43 44 44 44 44 45 45 46 46 46 46 46 45 44 44 43 42 42 41 40 39 38 38 37
39 37 37 38 38 38 39 39 39 40 40 41 42 42 43 43 42 43 44 45 45 46 45 45 45 45 44 43 43 42 41 41 41 40 39 38 37 36
39 39 38 37 37 37 37 38 38 39 40 40 41 40 40 41 41 42 43 44 44 44 44 44 44 43 43 42 42 41 40 40 39 38 38 37 35 33
38 38 37 36 36 36 36 36 37 38 39 39 39 38 39 40 41 42 42 43 43 43 43 43 42 42 41 41 41 40 38 38 37 37 35 34 32 30
37 37 36 35 35 35 36 36 36 37 38 38 37 38 39 40 40 42 42 42 42 42 41 40 40 40 40 39 38 37 36 36 36 34 32 30 29 28
37 36 36 35 35 35 35 36 36 37 37 37 37 38 39 40 41 42 42 41 41 40 40 39 39 39 38 37 35 34 34 34 33 31 30 28 26 26
36 36 36 36 36 35 35 35 36 36 36 36 37 38 39 40 42 41 41 40 39 39 40 39 37 37 35 33 32 32 32 31 30 29 28 26 24 23
36 36 36 36 36 35 36 35 35 35 34 35 36 37 39 41 41 40 39 39 38 38 38 36 35 34 31 29 30 30 29 28 28 27 26 24 23 22
36 36 35 35 35 36 36 36 35 34 34 35 37 38 40 40 39 39 38 37 37 36 35 34 32 30 27 27 28 28 27 27 26 25 24 23 22 21
35 35 34 34 35 35 35 34 34 34 34 35 37 38 38 38 37 36 36 35 34 33 33 30 27 25 25 26 26 26 25 25 24 24 23 21 20 19
35 35 34 34 34 34 33 32 33 34 35 35 36 36 35 35 34 34 33 32 31 30 30 27 24 24 24 24 24 23 23 24 23 23 22 21 19 17
34 34 34 34 33 32 31 31 32 33 34 34 34 33 32 32 31 30 30 29 28 27 26 25 23 22 23 23 22 22 22 22 22 22 21 20 18 15
33 33 32 31 31 30 30 30 31 32 32 32 31 30 29 29 28 28 27 26 25 23 23 23 22 21 21 21 21 21 21 21 21 21 20 19 16 14
31 30 29 29 29 29 30 30 31 31 30 29 29 28 27 27 27 26 25 24 22 21 21 21 20 20 20 20 20 20 20 20 20 19 18 16 13 12
29 29 29 28 29 29 29 29 29 29 28 27 27 26 26 26 25 24 23 21 20 21 21 20 19 19 19 19 18 18 19 19 18 17 15 13 11 11
28 29 28 28 28 28 27 27 28 27 27 26 25 25 24 23 22 21 20 19 19 20 20 19 18 18 17 17 17 18 18 16 16 15 13 11 10 9
28 28 28 28 27 27 27 26 26 26 25 24 23 22 22 21 20 19 19 18 18 19 17 17 16 16 16 16 16 17 16 15 14 12 11 10 10 9
27 27 27 26 26 26 26 25 25 24 24 22 21 20 20 19 18 18 17 16 17 16 15 15 15 14 15 15 15 15 14 13 12 11 10 9 9 9
26 26 26 26 26 25 24 24 23 22 21 20 19 18 18 17 17 16 15 15 14 14 14 14 13 13 14 13 13 13 12 11 10 10 9 9 9 9
25 25 25 25 24 24 23 22 21 20 19 18 17 16 16 15 15 15 14 14 13 13 13 13 12 12 12 12 12 11 10 10 9 9 9 8 9 9
Wind_Direction
270 272 273 273 276 279 280 281 282 285 287 289 291 292 294 296 298 299 300 301 301 302 303 303 303 304 304 304 305 305 305 305 305 304 303 302 303 302
268 271 273 274 276 278 280 282 284 286 288 289 290 292 294 296 298 299 301 301 302 302 303 304 305 305 306 306 306 305 305 306 306 305 304 304 304 303
268 269 271 273 276 279 281 283 284 286 288 289 290 293 295 297 298 300 301 301 302 304 305 306 306 306 306 306 306 307 307 307 307 306 304 303 304 304
268 269 272 275 277 280 282 284 285 286 288 290 292 294 295 298 299 300 302 302 303 304 305 306 307 307 307 307 308 308 307 307 307 307 306 304 303 302
268 270 272 276 278 280 282 284 286 287 288 291 293 295 296 298 300 301 302 303 304 305 306 306 307 307 307 308 308 308 308 308 307 307 307 304 303 302
267 269 273 277 278 280 282 284 286 288 289 291 294 296 297 299 300 302 303 304 305 306 307 307 307 307 307 307 308 308 309 309 308 308 307 306 305 303
267 269 272 275 278 280 282 285 288 290 291 293 295 296 297 299 301 303 304 305 306 306 307 307 307 308 308 308 308 309 309 310 310 310 309 308 307 305
267 269 271 273 277 280 283 286 289 291 292 294 295 296 298 300 301 304 305 305 305 306 307 308 308 308 309 309 309 310 311 311 311 311 311 310 309 307
266 268 271 273 277 281 284 287 289 292 294 294 295 297 299 300 303 305 306 306 307 307 308 309 309 309 310 311 311 312 312 312 312 312 312 312 309 308
267 269 270 273 277 280 284 287 289 291 292 294 296 298 300 303 305 305 305 306 307 308 308 309 309 310 311 312 313 314 315 316 315 314 313 312 310 309
266 268 270 273 277 280 283 286 288 290 291 295 297 299 302 303 304 305 305 306 307 307 308 308 309 310 311 312 313 314 316 317 318 318 317 314 312 309
265 268 271 274 277 280 282 284 286 288 291 294 298 300 302 303 303 304 305 305 307 308 308 309 309 310 312 313 314 315 317 318 320 320 318 316 316 312
265 268 271 274 277 280 282 283 285 288 292 295 298 301 301 302 303 304 305 306 307 309 310 310 310 311 313 314 315 317 318 320 322 323 322 319 318 316
265 268 271 274 278 280 282 283 285 288 292 295 298 300 301 302 304 304 305 306 308 309 311 312 312 313 314 315 316 318 320 321 323 324 323 321 321 318
265 268 271 273 276 279 281 283 287 290 292 295 298 300 302 303 304 304 305 307 308 310 311 312 312 314 315 316 318 319 321 323 324 326 324 322 321 320
267 269 271 272 275 279 282 284 287 290 292 295 297 299 302 304 304 305 306 307 308 309 311 312 313 314 315 317 319 321 323 325 327 328 328 327 325 325
265 266 268 271 274 277 280 283 286 289 292 294 295 298 300 302 303 303 304 305 307 309 310 311 313 314 315 317 320 323 325 327 329 330 330 331 332 334
263 265 268 271 274 276 280 283 285 288 290 292 293 296 298 300 301 302 303 303 306 308 310 311 313 314 316 319 323 326 328 330 331 334 335 336 338 340
261 264 267 270 274 277 280 283 284 285 287 289 291 294 296 299 301 302 302 303 305 307 309 311 313 315 318 321 325 329 331 333 335 339 340 341 344 345
260 263 267 270 273 276 279 282 282 282 284 287 289 292 295 298 300 302 302 304 307 309 309 311 313 316 320 323 325 329 333 335 338 343 348 349 353 355
260 263 267 270 273 276 277 278 278 278 280 282 285 290 294 297 299 301 301 304 308 308 309 312 314 316 320 323 327 332 336 338 342 347 352 354 354 355
260 263 267 270 272 273 273 274 274 275 276 279 284 290 295 298 299 300 301 303 306 308 309 312 314 316 320 324 328 334 339 342 344 348 352 355 355 355
261 265 267 267 269 270 271 270 270 271 274 278 284 289 293 296 299 300 301 301 302 305 308 310 312 316 320 325 331 335 339 342 343 347 351 358 2 5